Location: Ladd Observatory
(41.8387°N, 71.3996°W)
Time: 01:54:53
(UTC-04:00)

ISS - Visible Passes

Search period start: 28 May 2016 00:00
Search period end: 07 June 2016 00:00
Orbit: 402 x 404 km, 51.6° (Epoch: 27 May)

Date Brightness Start Highest point End Pass type
(mag) Time Alt. Az. Time Alt. Az. Time Alt. Az.
28 May -0.2 01:29:53 10° NNW 01:32:00 16° N 01:34:08 10° NE visible
28 May -1.9 03:05:59 10° NW 03:09:06 40° NNE 03:12:12 10° E visible
28 May -3.5 21:21:37 10° SW 21:24:52 80° SE 21:28:09 10° ENE visible
28 May -0.6 22:59:01 10° WNW 23:01:37 22° NNW 23:04:15 10° NE visible
29 May 0.0 00:37:01 10° NW 00:38:57 15° N 00:40:55 10° NE visible
29 May -1.1 02:13:21 10° NW 02:16:13 27° NNE 02:19:03 10° E visible
29 May -3.2 03:49:37 10° WNW 03:52:47 48° SW 03:55:57 10° SE visible
29 May -1.2 22:05:46 10° W 22:08:41 30° NNW 22:11:38 10° NE visible
29 May -0.1 23:43:54 10° NW 23:45:54 15° N 23:47:54 10° NNE visible
30 May -0.6 01:20:44 10° NW 01:23:15 20° NNE 01:25:47 10° ENE visible
30 May -3.4 02:56:49 10° NW 03:00:05 85° NE 03:03:20 10° SE visible
30 May -1.3 04:35:08 10° WSW 04:36:03 11° SW 04:36:59 10° SW visible
30 May -2.2 21:12:39 10° WSW 21:15:49 47° NNW 21:18:59 10° NE visible
30 May -0.2 22:50:39 10° NW 22:52:52 17° N 22:55:03 10° NNE visible
31 May -0.3 00:28:02 10° NNW 00:30:15 17° N 00:32:27 10° NE visible
31 May -1.6 02:04:06 10° NW 02:05:59 29° NNW 02:05:59 29° NNW visible
31 May -0.5 21:57:19 10° WNW 21:59:50 20° NNW 22:02:22 10° NE visible
31 May -0.1 23:35:13 10° NNW 23:37:12 15° N 23:39:11 10° NE visible
01 Jun -1.1 01:11:28 10° NW 01:13:35 26° N 01:13:35 26° N visible
01 Jun -1.0 21:04:02 10° W 21:06:52 27° NNW 21:09:44 10° NE visible
01 Jun -0.2 22:42:10 10° NW 22:44:08 15° N 22:46:05 10° NE visible
02 Jun -0.9 00:18:50 10° NW 00:21:27 22° NNE 00:21:54 21° NNE visible
02 Jun -0.3 21:48:57 10° NW 21:51:04 16° N 21:53:12 10° NNE visible
02 Jun -0.5 23:26:10 10° NNW 23:28:27 17° NNE 23:30:28 11° NE visible
03 Jun -0.7 01:02:12 10° NW 01:03:03 16° NW 01:03:03 16° NW visible
03 Jun -0.4 20:55:37 10° WNW 20:58:02 19° NNW 21:00:28 10° NNE visible
03 Jun -0.3 22:33:22 10° NNW 22:35:24 15° N 22:37:26 10° NE visible
04 Jun -1.3 00:09:33 10° NW 00:11:45 29° N 00:11:45 29° N visible
04 Jun -0.4 21:40:23 10° NW 21:42:20 15° N 21:44:17 10° NE visible
04 Jun -1.2 23:16:54 10° NW 23:19:38 24° NNE 23:20:31 21° NE visible
05 Jun -0.2 00:53:04 10° WNW 00:53:07 10° WNW 00:53:07 10° WNW visible
05 Jun -0.7 22:24:14 10° NNW 22:26:38 18° NNE 22:29:01 10° ENE visible
06 Jun -1.3 00:00:17 10° NW 00:01:57 27° NW 00:01:57 27° NW visible
06 Jun -0.5 21:31:29 10° NNW 21:33:35 16° N 21:35:41 10° NE visible
06 Jun -2.2 23:07:36 10° NW 23:10:42 38° NNE 23:10:50 38° NE visible
